Flag for Canada Weather past 2 weeks in Coquitlam, British Columbia, Canada

Now
66 °F

Mild.


Feels Like: 66 °F
Forecast: 54 / 69 °F
Wind: 3 mph from South

Location: P. Meadows Coastal Station

Current Time: Jul 25, 2014 at 11:37:03 AM

Latest Report: Jul 25, 2014 at 11:00 AM


Visibility: N/A

Pressure: 30.16 "Hg

Humidity: 60%

Dew point: 52 °F

Location of CoquitlamLocation

Historic Weather in Coquitlam — Graph

°F

Coquitlam temperature yesterday

Maximum temperature yesterday: 65 °F (at 3:00 PM)
Minimum temperature yesterday: 56 °F (at 6:00 AM)
Average temperature yesterday: 59 °F

Past Weeks' High & Low Weather Summary

 TemperatureHumidityPressure
High92 °F (Jul 13, 5:00 PM)97% (Jul 11, 6:00 AM)30.19 "Hg (Jul 11, 6:00 AM)
Low52 °F (Jul 22, 5:00 AM)27% (Jul 13, 5:00 PM)29.87 "Hg (Jul 10, 6:00 PM)
Average68 °F69%30.01 "Hg
* Reported Jul 10 10:00 AM — Jul 25 10:00 AM, Coquitlam, Weather by CustomWeather, © 2014

Note: Actual official high and low records may vary slightly from our data, if they occured in-between our weather recording intervals... More about our weather records

Advertising

Coquitlam weather history for previous 24 hours

 ConditionsComfort  
Time TempWeatherWind HumidityBarometerVisibility
10:00 AM
Jul 25
64 °FMild.2 mph64%30.16 "HgN/A
9:00 AM62 °FCool.2 mph72%30.17 "HgN/A
8:00 AM58 °FCool.1 mph81%30.17 "HgN/A
7:00 AM59 °FCool.2 mph79%30.17 "HgN/A
6:00 AM54 °FCool.3 mph92%30.17 "HgN/A
5:00 AM54 °FCool.2 mph90%30.18 "HgN/A
4:00 AM55 °FCool.3 mph87%30.18 "HgN/A
3:00 AM55 °FCool.3 mph81%30.18 "HgN/A
2:00 AM56 °FCool.3 mph84%30.18 "HgN/A
1:00 AM58 °FCool.2 mph81%30.19 "HgN/A
12:00 AM59 °FCool.1 mph77%30.19 "HgN/A
11:00 PM
Jul 24
59 °FCool.3 mph79%30.18 "HgN/A
10:00 PM58 °FCool.3 mph78%30.18 "HgN/A
9:00 PM62 °FCool.2 mph64%30.17 "HgN/A
8:00 PM63 °FMild.2 mph66%30.16 "HgN/A
7:00 PM64 °FMild.3 mph62%30.15 "HgN/A
6:00 PM64 °FMild.3 mph73%30.15 "HgN/A
5:00 PM64 °FMild.5 mph65%30.16 "HgN/A
4:00 PM64 °FMild.1 mph77%30.16 "HgN/A
3:00 PM65 °FMild.3 mph71%30.16 "HgN/A
2:00 PM64 °FMild.3 mph66%30.15 "HgN/A
1:00 PM61 °FCool.3 mph81%30.14 "HgN/A
12:00 PM59 °FCool.5 mph84%30.13 "HgN/A
11:00 AM58 °FCool.5 mph88%30.11 "HgN/A
Weather by CustomWeather, © 2014

See weather overviewHow to use our weather pages